This is the latest recevied weather packets stored in our database for station/object N2XP. If no packets are shown the sender has not sent any weather packets the latest 1 day(s).
| Time | Temp. | Humidity | Pressure | Rain* | Wind** | Luminosity | Snow |
|---|---|---|---|---|---|---|---|
| 1778019322 | 25° C | 39% | 1005.7 hPa | 0 mm | 1.79 m/s, 205° | - | - |
| 1778018429 | 25.56° C | 39% | 1005.5 hPa | 0 mm | 2.68 m/s, 189° | - | - |
| 1778017524 | 25.56° C | 38% | 1005.5 hPa | 0 mm | 2.24 m/s, 167° | - | - |
| 1778016620 | 25° C | 38% | 1005.4 hPa | 0 mm | 0.89 m/s, 226° | - | - |
| 1778015719 | 25.56° C | 39% | 1005.3 hPa | 0 mm | 0.89 m/s, 233° | - | - |
| 1778014818 | 26.11° C | 37% | 1005 hPa | 0 mm | 0.89 m/s, 223° | - | - |
| 1778013919 | 26.67° C | 37% | 1004.8 hPa | 0 mm | 0.45 m/s, 252° | - | - |
| 1778013016 | 26.67° C | 39% | 1005.1 hPa | 0 mm | 0.89 m/s, 180° | - | - |
| 1778012121 | 27.22° C | 36% | 1005.2 hPa | 0 mm | 1.34 m/s, 252° | - | - |
| 1778011214 | 27.22° C | 37% | 1005.3 hPa | 0 mm | 0.89 m/s, 194° | - | - |
| 1778010328 | 27.78° C | 39% | 1005.2 hPa | 0 mm | 0.89 m/s, 211° | - | - |
| 1778009431 | 27.22° C | 39% | 1005.5 hPa | 0 mm | 1.34 m/s, 190° | - | - |
| 1778008511 | 27.78° C | 37% | 1005.8 hPa | 0 mm | 1.34 m/s, 242° | - | - |
| 1778007610 | 27.78° C | 40% | 1005.8 hPa | 0 mm | 1.79 m/s, 219° | - | - |
| 1778006707 | 27.78° C | 37% | 1005.9 hPa | 0 mm | 1.34 m/s, 246° | - | - |
| 1778005807 | 27.78° C | 37% | 1005.9 hPa | 0 mm | 0.89 m/s, 192° | - | - |
| 1778004904 | 27.78° C | 38% | 1006.3 hPa | 0 mm | 3.58 m/s, 221° | - | - |
| 1778004058 | 27.22° C | 43% | 1006.3 hPa | 0 mm | 1.79 m/s, 221° | - | - |
| 1778003168 | 27.22° C | 42% | 1006.6 hPa | 0 mm | 2.24 m/s, 187° | - | - |
| 1778002249 | 27.22° C | 45% | 1006.7 hPa | 0 mm | 0.89 m/s, 192° | - | - |
| 1778001348 | 27.22° C | 45% | 1006.9 hPa | 0 mm | 1.34 m/s, 137° | - | - |
| 1778000468 | 26.11° C | 45% | 1007 hPa | 0 mm | 2.24 m/s, 152° | - | - |
| 1777999543 | 26.67° C | 50% | 1007.3 hPa | 0 mm | 0.45 m/s, 220° | - | - |
| 1777998644 | 26.67° C | 47% | 1007.4 hPa | 0 mm | 1.34 m/s, 202° | - | - |
| 1777997743 | 26.11° C | 47% | 1007.6 hPa | 0 mm | 0.89 m/s, 231° | - | - |
* Rain latest hour (hover to see other rain measurements)
** Current wind speed in m/s (hover to see current wind gust speed)